{"data":{"norad_id":67377,"intl_designator":"2026-004Q","name":"AETHER-6","alt_names":[],"object_type":"PAYLOAD","status":"ACTIVE","operator":null,"country":"CA","launch_date":"2026-01-11","launch_site_code":"AFWTR","launch_vehicle":null,"mission":null,"orbit_class":"UNKNOWN","rcs_meters":null,"size_class":null,"mass_kg":null,"dimensions":null,"purposes":[],"wikipedia_slug":null,"has_3d_model":false,"image_url":null,"decayed_at":null,"tle_current":{"epoch":"2026-09-20T22:24:08.239680Z","epoch_age_seconds":62936,"freshness":"FRESH","line1":"1 67377U 26004Q   26263.93342870  .00000368  00000+0  48347-4 0  9993","line2":"2 67377  97.8111 260.7996 0000687 162.7689 197.3550 14.85859730 37503","mean_motion":14.8585973,"eccentricity":6.87e-5,"inclination_deg":97.8111,"raan_deg":260.7996,"arg_perigee_deg":162.7689,"mean_anomaly_deg":197.355,"bstar":4.8347e-5,"rev_number":3750,"period_min":96.913589548591,"perigee_km":610.40848148423,"apogee_km":611.36877360546,"semimajor_km":6989.0256275448,"source":"CELESTRAK","updated_at":"2026-09-21T09:00:16.594934Z"}}}